Date String (YYYY-MM-DD hh:mm:ss) UTC,Instrument flags,Ambient pressure (hPa),Sample flow (lpm),Bypass flow (lpm),Sample temperature (°C),Ambient temperature (°C),ASC tube jacket temperature (°C),LED temperature (°C),Box temperature (°C),Sample RH (%),Span deviation,Mass concentration (μg/m³),Mass concentration (μg/m³),Mass concentration (μg/m³)
DateTimeUTC,F1_M11,P_M11,Q1_M11,Q2_M11,T1_M11,T2_M11,T3_M11,T4_M11,T5_M11,U1_M11,ZSPAN_M11,X0_M11,X2_M11,X1_M11
2023-05-06 01:00:00,,0823.3,5.01,0.00,30.3,28.7,00.0,38.6,31.8,09.5,0000.0,0008.11,0003.36,0001.78
2023-05-06 01:01:00,,0823.2,5.01,0.00,30.3,28.8,00.0,38.6,31.7,09.4,0000.0,0008.06,0003.35,0001.78
2023-05-06 01:02:00,,0823.2,5.01,0.00,30.3,28.8,00.0,38.6,31.8,09.3,0000.0,0008.16,0003.36,0001.79
2023-05-06 01:03:00,,0823.2,4.99,0.00,30.3,28.8,00.0,38.6,31.8,09.4,0000.0,0008.08,0003.34,0001.78
2023-05-06 01:04:00,,0823.3,5.00,0.00,30.3,28.8,00.0,38.6,31.8,09.2,0000.0,0007.76,0003.34,0001.78
2023-05-06 01:05:00,,0823.2,5.00,0.00,30.3,28.8,00.0,38.6,31.7,09.0,0000.0,0007.98,0003.30,0001.76
2023-05-06 01:06:00,,0823.2,5.01,0.00,30.3,28.8,00.0,38.6,31.7,08.7,0000.0,0008.56,0003.31,0001.76
2023-05-06 01:07:00,,0823.2,5.00,0.00,30.3,28.8,00.0,38.6,31.8,08.7,0000.0,0008.40,0003.30,0001.73
2023-05-06 01:08:00,,0823.2,5.00,0.00,30.3,28.8,00.0,38.7,31.8,08.6,0000.0,0008.47,0003.26,0001.72
2023-05-06 01:09:00,,0823.3,5.00,0.00,30.3,28.8,00.0,38.7,31.8,08.6,0000.0,0009.11,0003.23,0001.72
2023-05-06 01:10:00,,0823.3,4.99,0.00,30.3,28.8,00.0,38.7,31.8,08.6,0000.0,0008.99,0003.20,0001.74
2023-05-06 01:11:00,,0823.3,5.00,0.00,30.4,28.8,00.0,38.7,31.8,08.5,0000.0,0008.95,0003.19,0001.73
2023-05-06 01:12:00,,0823.3,5.01,0.00,30.4,28.8,00.0,38.7,31.8,08.5,0000.0,0008.91,0003.16,0001.73
2023-05-06 01:13:00,,0823.4,5.01,0.00,30.4,28.8,00.0,38.7,31.9,08.6,0000.0,0008.72,0003.12,0001.71
2023-05-06 01:14:00,,0823.4,4.98,0.00,30.4,28.4,00.0,38.7,31.8,08.6,0000.0,0008.65,0003.09,0001.69
2023-05-06 01:15:00,,0823.4,5.00,0.00,30.3,26.4,00.0,38.6,31.6,08.5,0000.0,0008.52,0003.04,0001.68
2023-05-06 01:16:00,,0823.4,5.01,0.00,30.2,25.8,00.0,38.5,31.4,08.4,0000.0,0008.08,0003.06,0001.68
2023-05-06 01:17:00,,0823.3,5.01,0.00,30.1,25.9,00.0,38.5,31.2,08.6,0000.0,0007.56,0003.06,0001.68
2023-05-06 01:18:00,,0823.3,4.99,0.00,30.0,26.2,00.0,38.5,31.2,08.5,0000.0,0007.62,0003.09,0001.69
2023-05-06 01:19:00,,0823.4,5.00,0.00,30.0,26.6,00.0,38.4,31.2,08.5,0000.0,0007.64,0003.14,0001.69
2023-05-06 01:20:00,,0823.4,5.00,0.00,29.9,27.0,00.0,38.4,31.3,08.5,0000.0,0006.77,0003.22,0001.69
2023-05-06 01:21:00,,0823.4,4.99,0.00,29.9,27.3,00.0,38.4,31.3,08.6,0000.0,0006.87,0003.24,0001.68
2023-05-06 01:22:00,,0823.4,4.99,0.00,29.9,27.5,00.0,38.4,31.4,08.6,0000.0,0007.15,0003.23,0001.68
2023-05-06 01:23:00,,0823.4,5.01,0.00,29.9,27.7,00.0,38.4,31.4,08.7,0000.0,0007.19,0003.27,0001.70
2023-05-06 01:24:00,,0823.5,5.00,0.00,29.9,27.9,00.0,38.4,31.4,08.7,0000.0,0007.16,0003.25,0001.71
2023-05-06 01:25:00,,0823.5,5.00,0.00,29.9,28.0,00.0,38.4,31.5,08.7,0000.0,0007.27,0003.28,0001.71
2023-05-06 01:26:00,,0823.5,4.99,0.00,30.0,28.1,00.0,38.4,31.4,08.7,0000.0,0007.52,0003.36,0001.74
2023-05-06 01:27:00,,0823.5,5.00,0.00,30.0,28.2,00.0,38.4,31.5,08.7,0000.0,0007.61,0003.36,0001.74
2023-05-06 01:28:00,,0823.5,5.00,0.00,30.0,28.3,00.0,38.4,31.5,08.7,0000.0,0007.52,0003.34,0001.74
2023-05-06 01:29:00,,0823.5,5.00,0.00,30.0,28.4,00.0,38.4,31.5,08.8,0000.0,0007.36,0003.31,0001.74
2023-05-06 01:30:00,,0823.6,5.00,0.00,30.0,28.4,00.0,38.4,31.5,08.8,0000.0,0007.35,0003.28,0001.74
2023-05-06 01:31:00,,0823.6,5.00,0.00,30.0,28.5,00.0,38.4,31.5,08.7,0000.0,0007.57,0003.25,0001.73
2023-05-06 01:32:00,,0823.6,4.99,0.00,30.0,28.5,00.0,38.4,31.6,08.7,0000.0,0007.44,0003.24,0001.72
2023-05-06 01:33:00,,0823.6,5.02,0.00,30.1,28.5,00.0,38.4,31.6,08.7,0000.0,0007.46,0003.27,0001.71
2023-05-06 01:34:00,,0823.6,4.99,0.00,30.1,28.6,00.0,38.4,31.6,08.7,0000.0,0008.15,0003.28,0001.68
2023-05-06 01:35:00,,0823.7,5.00,0.00,30.1,28.6,00.0,38.4,31.6,08.8,0000.0,0008.21,0003.29,0001.66
2023-05-06 01:36:00,,0823.6,5.00,0.00,30.1,28.6,00.0,38.4,31.6,08.9,0000.0,0008.23,0003.28,0001.66
2023-05-06 01:37:00,,0823.6,4.99,0.00,30.1,28.6,00.0,38.4,31.7,08.8,0000.0,0008.18,0003.26,0001.65
2023-05-06 01:38:00,,0823.7,5.02,0.00,30.1,28.7,00.0,38.4,31.7,08.8,0000.0,0008.15,0003.28,0001.66
2023-05-06 01:39:00,,0823.7,5.00,0.00,30.1,28.7,00.0,38.4,31.7,08.9,0000.0,0008.21,0003.29,0001.66
2023-05-06 01:40:00,,0823.7,4.99,0.00,30.1,28.7,00.0,38.5,31.7,08.6,0000.0,0008.62,0003.33,0001.65
2023-05-06 01:41:00,,0823.8,4.99,0.00,30.2,28.7,00.0,38.5,31.7,08.6,0000.0,0008.54,0003.32,0001.64
2023-05-06 01:42:00,,0823.8,5.01,0.00,30.2,28.7,00.0,38.5,31.7,08.5,0000.0,0008.28,0003.28,0001.63
2023-05-06 01:43:00,,0823.8,5.01,0.00,30.2,28.8,00.0,38.5,31.7,08.6,0000.0,0008.33,0003.29,0001.63
2023-05-06 01:44:00,,0823.8,5.00,0.00,30.2,28.8,00.0,38.5,31.7,08.4,0000.0,0008.11,0003.25,0001.63
2023-05-06 01:45:00,,0823.8,5.00,0.00,30.2,28.8,00.0,38.5,31.7,08.4,0000.0,0007.43,0003.20,0001.64
2023-05-06 01:46:00,,0823.8,5.00,0.00,30.2,28.8,00.0,38.5,31.7,08.3,0000.0,0007.69,0003.22,0001.65
2023-05-06 01:47:00,,0823.7,5.00,0.00,30.2,28.8,00.0,38.5,31.7,08.3,0000.0,0007.83,0003.24,0001.67
2023-05-06 01:48:00,,0823.8,5.00,0.00,30.3,28.8,00.0,38.5,31.7,08.4,0000.0,0007.72,0003.19,0001.66
2023-05-06 01:49:00,,0823.8,4.99,0.00,30.3,28.8,00.0,38.6,31.8,08.4,0000.0,0007.67,0003.15,0001.66
2023-05-06 01:50:00,,0823.7,4.99,0.00,30.3,28.8,00.0,38.6,31.8,08.5,0000.0,0007.65,0003.15,0001.65
2023-05-06 01:51:00,,0823.8,5.00,0.00,30.3,28.8,00.0,38.6,31.7,08.4,0000.0,0007.32,0003.14,0001.66
2023-05-06 01:52:00,,0823.8,5.00,0.00,30.2,28.8,00.0,38.6,31.8,08.4,0000.0,0007.25,0003.14,0001.67
2023-05-06 01:53:00,,0823.8,5.00,0.00,30.2,28.8,00.0,38.6,31.8,08.4,0000.0,0007.23,0003.16,0001.68
2023-05-06 01:54:00,,0823.8,5.00,0.00,30.3,28.8,00.0,38.6,31.8,08.4,0000.0,0007.31,0003.13,0001.69
2023-05-06 01:55:00,,0823.8,5.00,0.00,30.3,28.8,00.0,38.6,31.8,08.4,0000.0,0007.41,0003.15,0001.70
2023-05-06 01:56:00,,0823.8,5.01,0.00,30.3,28.8,00.0,38.6,31.7,08.5,0000.0,0008.05,0003.17,0001.69
2023-05-06 01:57:00,,0823.8,5.00,0.00,30.3,28.8,00.0,38.6,31.8,08.5,0000.0,0007.66,0003.14,0001.70
2023-05-06 01:58:00,,0823.9,5.00,0.00,30.3,28.8,00.0,38.6,31.7,08.5,0000.0,0007.44,0003.12,0001.69
2023-05-06 01:59:00,,0823.9,5.00,0.00,30.3,28.8,00.0,38.6,31.8,08.6,0000.0,0007.55,0003.16,0001.69
